星链-2141 (STARLINK-2141 )

导读 | 星芒AI

STARLINK-2141 是 SpaceX 星链计划中的一颗低轨通信卫星,属于第二代星链星座的一部分。该卫星旨在为全球用户提供高速、低延迟的互联网服务,尤其关注偏远和网络覆盖不足的地区。它采用先进的推进和通信技术,具备更高的带宽和更优的性能。STARLINK-2141 于近期成功发射并入网,进一步增强了星链系统的覆盖能力和稳定性,为全球用户带来更优质的网络体验。

基本信息
目录编号:
47731
目录名称:
STARLINK-2141
国际标识:
2021-017K
轨道中心:
EARTH
卫星名称:
星链-2141
卫星全名:
星链-2141 (STARLINK-2141 )
卫星状态:
在轨 (已飞行1701 天)
发射日期:
2021-03-04 UTC
国别 :
美国 (US)
星等 :
--
轨道信息
数据来源 国际轨道数据
星历时间: 2025-10-30T02:21:51+0800
13小时前
查看轨道信息
半长轴: 6925.331km
偏心率: 0.0001241
轨道倾角: 53.054°
近地点辐角 91.208°
升交点赤经 79.361°
平近点角 268.906°
近地点: 546.336km
远地点: 548.056km
周期: 95.592分钟
每日圈数: 15.06406
详细信息
固有亮度:
5
最大亮度:
2.5
卫星平台:
Starlink V1.0
覆盖范围:
全球
运营商:
太空探索技术公司
运营商所在国:
美国
制造商(研发单位):
太空探索技术公司
制造商所在国:
美国
使用方式:
暂无
卫星简介
星链(Starlink)计划是由太空探索技术公司(SpaceX)提出的一个巨型低轨卫星互联网星座项目,计划在2019年至2024年间在太空搭建由约1.2万颗卫星组成的“星链”网络,其中1584颗将部署在地球上空550千米处的近地轨道,并从2020年开始工作。该卫星仍在工作。
2D轨道图
3D轨道图
轨道高度分析图
轨道倾角分析图
轨道综合分析图
查看轨道综合分析图